#timestamp,LO_Frequency,Hit,StdDev 
1703448015.2,286047002.3,N
1703448035.1,286047001.2,N
1703448036.0,286047001.2,N
1703448055.8,286047000.0,N
1703448075.6,286046998.6,N
1703448095.5,286046999.8,N
1703448115.3,286047000.5,N
1703448135.1,286047002.7,N
1703448155.9,286047000.2,N
1703448205.8,286047000.2,E
1703448215.7,286046998.1,N
1703448235.5,286047001.1,P
1703448255.4,286047000.2,N
1703448275.2,286047000.2,N
1703448295.0,286047002.8,N
1703448295.9,286047002.8,N
1703448315.8,286046999.8,N
1703448335.6,286047002.8,N
1703448355.4,286046999.9,N
1703448375.3,286046999.9,N
1703448395.1,286047000.9,N
1703448415.9,286047000.6,N
1703448435.7,286046999.7,N
1703448455.5,286047002.8,N
1703448475.4,286047002.8,N
1703448495.2,286047001.9,N
1703448515.1,286047004.0,N
1703448516.0,286047004.0,N
1703448535.8,286047001.4,N
1703448555.6,286047004.3,N
1703448575.5,286047002.1,N
1703448595.3,286047001.5,N
1703448615.1,286047002.1,N
1703448635.9,286047002.5,N
1703448655.7,286047002.2,N
1703448675.6,286047002.4,N
1703448695.4,286047002.0,N
1703448715.2,286047004.0,N
1703448735.1,286047002.8,N
1703448736.0,286047002.8,N
1703448755.8,286047002.4,N
1703448775.7,286047002.8,N
1703448795.5,286047002.3,N
1703448815.3,286047000.1,N
1703448835.2,286047000.5,N
1703448855.9,286047000.6,N
1703448875.7,286047000.4,N
1703448895.6,286047002.1,N
1703448915.4,286047002.1,N
1703448935.3,286047004.3,Y
1703448955.1,286046998.1,P
1703448956.0,286046998.1,N
1703448975.8,286046999.1,N
1703448995.7,286046999.2,N
1703449015.5,286046997.3,N
1703449035.3,286046996.7,N
1703449055.2,286046995.8,N
1703449075.0,286046993.8,Y
1703449075.9,286046993.8,P
1703449095.8,286046995.0,N
1703449115.6,286046997.4,N
1703449135.4,286046996.2,N
1703449155.3,286046996.3,N
1703449175.1,286046993.7,Y
1703449195.9,286046998.7,P
1703449215.7,286046999.3,N
1703449235.5,286046996.5,N
1703449255.4,286046997.0,N
1703449275.2,286046997.6,N
1703449295.0,286046998.0,N
1703449295.9,286046998.0,N
1703449315.8,286046997.6,N
1703449335.6,286046997.6,N
1703449355.5,286046997.5,N
1703449375.3,286046996.0,Y
1703449395.1,286046997.7,P
1703449415.9,286046998.8,P
1703449435.7,286046998.6,N
1703449455.6,286046998.6,N
1703449475.4,286047001.2,N
1703449495.2,286046998.6,N
1703449515.1,286046998.5,N
1703449516.0,286046998.5,N
1703449535.8,286046999.1,N
1703449555.6,286046998.7,N
1703449575.5,286046998.1,N
1703449595.3,286046998.8,N
1703449615.2,286046999.2,N
1703449635.9,286046997.1,Y
1703449655.7,286046999.2,P
1703449675.6,286046999.6,N
1703449695.4,286046997.4,P
1703449715.3,286046997.2,Y
1703449735.1,286046996.9,P
1703449736.0,286046996.9,P
1703449755.8,286046997.0,P
1703449775.7,286046997.3,Y
1703449795.5,286046998.1,P
1703449815.3,286046998.3,P
1703449835.2,286047000.7,N
1703449855.0,286047002.6,N
1703449855.9,286047002.6,N
1703449875.8,286047000.2,N
1703449895.6,286047000.8,N
1703449915.4,286047000.5,N
1703449935.3,286046998.2,N
1703449955.3,286046998.4,N
1703449975.2,286046998.3,N
1703449995.0,286046999.4,N
1703449995.9,286046999.4,N
1703450015.7,286046999.1,N
1703450035.6,286046999.0,N
1703450055.4,286046998.5,N
1703450075.3,286046998.4,N
1703450095.1,286046998.5,N
1703450096.0,286046998.5,N
1703450115.8,286047000.6,N
1703450135.7,286047000.2,N
1703450155.5,286047001.1,N
1703450175.4,286047000.6,N
1703450195.2,286047000.1,N
1703450215.0,286047000.5,N
1703450215.9,286047000.5,N
1703450235.8,286047000.8,N
1703450255.6,286046999.7,N
1703450275.4,286046999.9,N
1703450295.3,286047001.0,N
1703450315.1,286047000.0,N
1703450335.9,286046999.9,N
1703450355.7,286046999.7,N
1703450375.5,286047000.3,N
1703450395.4,286047001.1,N
1703450415.2,286047000.6,N
1703450435.0,286046998.9,N
1703450435.9,286046998.9,N
1703450455.8,286046997.0,Y
1703450475.6,286046999.4,P
1703450495.5,286046996.5,P
1703450515.3,286047000.7,N
1703450535.1,286046998.1,N
1703450555.9,286046999.4,N
1703450575.7,286046999.5,N
1703450595.5,286046997.4,N
1703450615.4,286046999.1,N
1703450635.2,286046998.9,N
1703450655.1,286046999.0,N
1703450656.0,286046999.0,N
1703450675.8,286046998.9,N
1703450695.6,286046999.4,N
1703450715.5,286046999.1,N
1703450735.3,286046998.7,N
1703450755.1,286046998.4,N
1703450775.9,286046999.4,N
1703450795.7,286046996.7,Y
1703450815.6,286046999.5,P
1703450835.4,286046996.8,P
1703450855.2,286046995.9,P
1703450875.1,286046997.4,N
1703450876.0,286046997.4,N
1703450895.8,286046997.2,N
1703450915.7,286046996.9,N
1703450935.5,286046998.9,N
1703450955.3,286046999.4,N
1703450975.2,286046999.3,N
1703450995.0,286046999.3,N
1703450995.9,286046999.3,N
1703451015.7,286047001.1,N
1703451035.6,286046997.0,N
1703451055.4,286046997.8,N
1703451075.3,286046999.5,N
1703451095.1,286046996.6,N
1703451096.0,286046996.6,N
1703451115.8,286046996.8,N
1703451135.7,286046996.7,N
1703451155.5,286046999.6,N
1703451175.3,286046997.4,N
1703451195.2,286046996.1,N
1703451215.0,286046995.0,Y
1703451215.9,286046995.0,P
1703451235.8,286046998.1,N
1703451255.6,286046998.5,N
1703451275.4,286047000.9,N
1703451295.3,286047000.1,N
1703451315.1,286047002.4,N
1703451335.9,286047002.1,N
1703451355.7,286047000.7,N
1703451375.5,286046998.6,N
1703451395.4,286046998.1,N
1703451415.2,286046998.8,N
1703451435.0,286046998.6,N
1703451436.0,286046998.6,N
1703451455.8,286046998.2,N
1703451475.6,286046998.4,N
1703451495.5,286046998.1,N
1703451515.3,286047000.6,N
1703451535.1,286046998.1,N
1703451555.9,286047000.5,N
1703451575.7,286047002.8,N
1703451595.6,286046999.7,N
